Orbital Elements at Epoch 2459200.5 (2020-Dec-17.0) TDB
Reference: JPL 20 (heliocentric ecliptic J2000)
Element | Value | Uncertainty (1-sigma) | Units |
e | .0631895741741454 | 6.1225e-08 | |
a | 2.870867207200481 | 2.1772e-08 | au |
q | 2.689458330866965 | 1.7682e-07 | au |
i | 3.25969181998953 | 4.6154e-06 | deg |
node | 92.69859546843462 | 0.00012096 | deg |
peri | 224.9919009740773 | 0.00012736 | deg |
M | 267.7102372293254 | 4.1637e-05 | deg |
tp | 2459655.979790853185 (2022-Mar-17.47979085) | 0.00020663 | TDB |
period | 1776.716287748977 4.86 | 2.0211e-05 5.533e-08 | d yr |
n | .2026209825858604 | 2.3049e-09 | deg/d |
Q | 3.052276083533997 | 2.3148e-08 | au |
|
| | Orbit Determination Parameters
Additional Information
|